H1 CPF 2 NER 2022 2 22 9 053 01 glonass140 H2 1903001 9140 44299 2022 2 22 0 0 0 2022 2 25 23 45 0 900 1 1 0 0 0 1 H9 10 0 59632 0.00000 0 1891471.457 -25450869.413 -137109.478 10 0 59632 900.00000 0 1745285.486 -25240049.636 -3333289.464 10 0 59632 1800.00000 0 1626643.865 -24630055.562 -6464791.059 10 0 59632 2700.00000 0 1588737.182 -23637090.004 -9470818.080 10 0 59632 3600.00000 0 1680582.618 -22289873.946 -12292973.554 10 0 59632 4500.00000 0 1944708.991 -20628519.700 -14876395.674 10 0 59632 5400.00000 0 2415117.233 -18702944.255 -17170827.279 10 0 59632 6300.00000 0 3115603.654 -16570888.286 -19131597.799 10 0 59632 7200.00000 0 4058518.181 -14295622.986 -20720498.160 10 0 59632 8100.00000 0 5244011.647 -11943439.975 -21906531.314 10 0 59632 9000.00000 0 6659805.729 -9581028.710 -22666523.448 10 0 59632 9900.00000 0 8281497.073 -7272850.708 -22985583.456 10 0 59632 10800.00000 0 10073384.748 -5078620.010 -22857401.352 10 0 59632 11700.00000 0 11989788.005 -3050994.967 -22284379.214 10 0 59632 12600.00000 0 13976800.482 -1233577.725 -21277591.570 10 0 59632 13500.00000 0 15974408.400 340695.161 -19856575.386 10 0 59632 14400.00000 0 17918884.665 1650703.969 -18048953.176 10 0 59632 15300.00000 0 19745358.703 2687791.063 -15889896.179 10 0 59632 16200.00000 0 21390454.156 3455873.858 -13421437.750 10 0 59632 17100.00000 0 22794883.348 3971021.726 -10691650.310 10 0 59632 18000.00000 0 23905888.888 4260515.864 -7753702.216 10 0 59632 18900.00000 0 24679429.182 4361433.303 -4664813.453 10 0 59632 19800.00000 0 25082015.372 4318816.548 -1485131.307 10 0 59632 20700.00000 0 25092121.996 4183508.001 1723450.955 10 0 59632 21600.00000 0 24701111.968 4009742.622 4898508.297 10 0 59632 22500.00000 0 23913637.166 3852602.422 7978306.266 10 0 59632 23400.00000 0 22747498.364 3765442.007 10903006.654 10 0 59632 24300.00000 0 21232971.193 3797395.281 13615832.340 10 0 59632 25200.00000 0 19411627.383 3991069.548 16064168.386 10 0 59632 26100.00000 0 17334701.663 4380524.843 18200577.963 10 0 59632 27000.00000 0 15061073.523 4989623.829 19983713.989 10 0 59632 27900.00000 0 12654948.637 5830821.647 21379109.633 10 0 59632 28800.00000 0 10183336.909 6904446.308 22359833.513 10 0 59632 29700.00000 0 7713431.855 8198499.572 22906998.220 10 0 59632 30600.00000 0 5309999.528 9688986.554 23010113.683 10 0 59632 31500.00000 0 3032884.384 11340760.271 22667279.689 10 0 59632 32400.00000 0 934734.084 13108846.239 21885214.845 10 0 59632 33300.00000 0 -940964.066 14940192.473 20679121.996 10 0 59632 34200.00000 0 -2561455.270 16775772.721 19072392.954 10 0 59632 35100.00000 0 -3905834.503 18552956.331 17096158.092 10 0 59632 36000.00000 0 -4965664.053 20208047.053 14788688.986 10 0 59632 36900.00000 0 -5745066.955 21678885.917 12194664.935 10 0 59632 37800.00000 0 -6260293.566 22907410.508 9364316.609 10 0 59632 38700.00000 0 -6538780.225 23842064.381 6352462.385 10 0 59632 39600.00000 0 -6617739.913 24439956.224 3217455.172 10 0 59632 40500.00000 0 -6542344.409 24668678.400 20059.279 10 0 59632 41400.00000 0 -6363574.559 24507708.338 -3177721.511 10 0 59632 42300.00000 0 -6135829.244 23949333.311 -6313842.272 10 0 59632 43200.00000 0 -5914394.060 22999058.890 -9327418.643 10 0 59632 44100.00000 0 -5752876.749 21675482.725 -12159908.603 10 0 59632 45000.00000 0 -5700718.115 20009637.677 -14756251.158 10 0 59632 45900.00000 0 -5800884.184 18043830.504 -17065939.604 10 0 59632 46800.00000 0 -6087837.975 15830023.433 -19044008.248 10 0 59632 47700.00000 0 -6585877.631 13427825.224 -20651912.975 10 0 59632 48600.00000 0 -7307912.375 10902174.745 -21858288.251 10 0 59632 49500.00000 0 -8254729.469 8320812.937 -22639565.430 10 0 59632 50400.00000 0 -9414784.660 5751648.249 -22980439.874 10 0 59632 51300.00000 0 -10764526.630 3260124.956 -22874177.374 10 0 59632 52200.00000 0 -12269243.403 906703.847 -22322753.347 10 0 59632 53100.00000 0 -13884396.501 -1255439.707 -21336821.539 10 0 59632 54000.00000 0 -15557387.938 -3182404.511 -19935512.262 10 0 59632 54900.00000 0 -17229686.624 -4841156.257 -18146063.522 10 0 59632 55800.00000 0 -18839225.142 -6210657.942 -16003291.793 10 0 59632 56700.00000 0 -20322966.211 -7282491.279 -13548912.473 10 0 59632 57600.00000 0 -21619530.535 -8060943.879 -10830723.170 10 0 59632 58500.00000 0 -22671774.858 -8562559.689 -7901666.046 10 0 59632 59400.00000 0 -23429210.927 -8815173.027 -4818788.018 10 0 59632 60300.00000 0 -23850162.718 -8856468.662 -1642119.828 10 0 59632 61200.00000 0 -23903570.385 -8732130.520 1566503.022 10 0 59632 62100.00000 0 -23570364.479 -8493659.196 4744653.433 10 0 59632 63000.00000 0 -22844352.425 -8195952.401 7830535.232 10 0 59632 63900.00000 0 -21732580.118 -7894752.350 10764190.175 10 0 59632 64800.00000 0 -20255153.878 -7644069.410 13488665.314 10 0 59632 65700.00000 0 -18444530.864 -7493691.910 15951117.666 10 0 59632 66600.00000 0 -16344308.478 -7486887.843 18103834.741 10 0 59632 67500.00000 0 -14007564.071 -7658395.594 19905151.644 10 0 59632 68400.00000 0 -11494814.797 -8032788.178 21320247.845 10 0 59632 69300.00000 0 -8871682.889 -8623279.397 22321809.282 10 0 59632 70200.00000 0 -6206363.347 -9431021.572 22890544.308 10 0 59632 71100.00000 0 -3566998.599 -10444923.852 23015544.849 10 0 59632 72000.00000 0 -1019068.169 -11641998.411 22694486.959 10 0 59632 72900.00000 0 1377099.797 -12988219.998 21933667.886 10 0 59632 73800.00000 0 3568593.649 -14439863.189 20747879.537 10 0 59632 74700.00000 0 5511867.729 -15945261.975 19160121.055 10 0 59632 75600.00000 0 7174297.213 -17446919.000 17201155.894 10 0 59632 76500.00000 0 8535275.419 -18883877.286 14908921.486 10 0 59632 77400.00000 0 9586809.329 -20194256.283 12327802.146 10 0 59632 78300.00000 0 10333589.820 -21317847.123 9507778.412 10 0 59632 79200.00000 0 10792534.603 -22198659.198 6503468.214 10 0 59632 80100.00000 0 10991823.610 -22787311.812 3373077.619 10 0 59632 81000.00000 0 10969467.713 -23043170.751 177280.612 10 0 59632 81900.00000 0 10771471.108 -22936139.857 -3021951.015 10 0 59632 82800.00000 0 10449664.754 -22448031.732 -6162545.292 10 0 59632 83700.00000 0 10059302.229 -21573459.027 -9183532.229 10 0 59632 84600.00000 0 9656519.515 -20320207.597 -12026227.183 10 0 59632 85500.00000 0 9295766.111 -18709074.417 -14635372.246 10 0 59633 0.00000 0 9027316.376 -16773175.657 -16960213.074 10 0 59633 900.00000 0 8894966.611 -14556751.212 -18955491.153 10 0 59633 1800.00000 0 8934016.231 -12113516.961 -20582328.745 10 0 59633 2700.00000 0 9169618.727 -9504628.798 -21808993.160 10 0 59633 3600.00000 0 9615573.540 -6796344.879 -22611521.917 10 0 59633 4500.00000 0 10273610.880 -4057481.765 -22974197.488 10 0 59633 5400.00000 0 11133201.009 -1356770.024 -22889861.718 10 0 59633 6300.00000 0 12171897.391 1239781.029 -22360063.288 10 0 59633 7200.00000 0 13356200.449 3671399.801 -21395034.750 10 0 59633 8100.00000 0 14642906.618 5884845.464 -20013499.020 10 0 59633 9000.00000 0 15980886.678 7836382.124 -18242308.525 10 0 59633 9900.00000 0 17313218.891 9493351.819 -16115923.573 10 0 59633 10800.00000 0 18579587.137 10835281.075 -13675739.854 10 0 59633 11700.00000 0 19718842.752 11854475.287 -10969278.056 10 0 59633 12600.00000 0 20671621.426 12556076.931 -8049251.690 10 0 59633 13500.00000 0 21382904.017 12957586.407 -4972531.817 10 0 59633 14400.00000 0 21804412.354 13087867.272 -1799029.600 10 0 59633 15300.00000 0 21896738.092 12985679.531 1409480.436 10 0 59633 16200.00000 0 21631114.086 12697804.832 4590572.401 10 0 59633 17100.00000 0 20990753.137 12276844.682 7682391.625 10 0 59633 18000.00000 0 19971697.496 11778786.506 10624862.922 10 0 59633 18900.00000 0 18583143.489 11260441.945 13360860.390 10 0 59633 19800.00000 0 16847227.895 10776866.784 15837315.617 10 0 59633 20700.00000 0 14798285.557 10378872.136 18006242.764 10 0 59633 21600.00000 0 12481609.766 10110732.141 19825661.127 10 0 59633 22500.00000 0 9951767.574 10008184.581 21260398.145 10 0 59633 23400.00000 0 7270540.491 10096808.042 22282758.389 10 0 59633 24300.00000 0 4504576.111 10390843.130 22873046.902 10 0 59633 25200.00000 0 1722847.651 10892506.416 23019938.116 10 0 59633 26100.00000 0 -1005973.983 11591825.221 22720684.390 10 0 59633 27000.00000 0 -3616127.976 12466999.630 21981161.151 10 0 59633 27900.00000 0 -6047244.716 13485276.427 20815748.395 10 0 59633 28800.00000 0 -8246599.039 14604298.470 19247051.095 10 0 59633 29700.00000 0 -10171043.979 15773873.496 17305463.823 10 0 59633 30600.00000 0 -11788546.466 16938089.035 15028587.476 10 0 59633 31500.00000 0 -13079262.599 18037685.669 12460508.687 10 0 59633 32400.00000 0 -14036109.061 19012590.084 9650954.926 10 0 59633 33300.00000 0 -14664807.843 19804502.453 6654340.618 10 0 59633 34200.00000 0 -14983403.067 20359430.089 3528721.875 10 0 59633 35100.00000 0 -15021270.638 20630061.193 334679.246 10 0 59633 36000.00000 0 -14817662.486 20577878.797 -2865850.516 10 0 59633 36900.00000 0 -14419846.641 20174925.454 -6010771.346 10 0 59633 37800.00000 0 -13880921.439 19405143.569 -9039030.419 10 0 59633 38700.00000 0 -13257395.949 18265233.718 -11891803.071 10 0 59633 39600.00000 0 -12606638.699 16764993.366 -14513636.837 10 0 59633 40500.00000 0 -11984302.479 14927120.036 -16853532.195 10 0 59633 41400.00000 0 -11441834.238 12786485.342 -18865938.731 10 0 59633 42300.00000 0 -11024175.545 10388908.584 -20511646.963 10 0 59633 43200.00000 0 -10767751.327 7789479.466 -21758558.150 10 0 59633 44100.00000 0 -10698832.447 5050498.566 -22582316.761 10 0 59633 45000.00000 0 -10832342.087 2239120.276 -22966792.827 10 0 59633 45900.00000 0 -11171157.215 -575204.451 -22904404.359 10 0 59633 46800.00000 0 -11705935.586 -3323379.773 -22396273.036 10 0 59633 47700.00000 0 -12415476.493 -5939300.909 -21452209.562 10 0 59633 48600.00000 0 -13267600.890 -8362364.892 -20090528.401 10 0 59633 49500.00000 0 -14220514.402 -10539751.616 -18337694.939 10 0 59633 50400.00000 0 -15224596.065 -12428380.082 -16227811.492 10 0 59633 51300.00000 0 -16224537.393 -13996458.390 -13801951.886 10 0 59633 52200.00000 0 -17161741.184 -15224563.041 -11107357.466 10 0 59633 53100.00000 0 -17976878.168 -16106202.928 -8196510.490 10 0 59633 54000.00000 0 -18612492.686 -16647845.376 -5126103.439 10 0 59633 54900.00000 0 -19015546.311 -16868404.424 -1955925.091 10 0 59633 55800.00000 0 -19139790.931 -16798214.458 1252313.833 10 0 59633 56700.00000 0 -18947870.116 -16477534.289 4436191.502 10 0 59633 57600.00000 0 -18413059.311 -15954646.693 7533797.573 10 0 59633 58500.00000 0 -17520570.934 -15283635.455 10484942.700 10 0 59633 59400.00000 0 -16268369.207 -14521935.463 13232330.695 10 0 59633 60300.00000 0 -14667460.425 -13727760.562 15722670.225 10 0 59633 61200.00000 0 -12741646.698 -12957518.561 17907704.372 10 0 59633 62100.00000 0 -10526753.793 -12263322.784 19745138.581 10 0 59633 63000.00000 0 -8069365.526 -11690704.814 21199449.861 10 0 59633 63900.00000 0 -5425117.707 -11276624.164 22242562.602 10 0 59633 64800.00000 0 -2656622.432 -11047857.609 22854379.305 10 0 59633 65700.00000 0 168891.475 -11019834.789 23023157.254 10 0 59633 66600.00000 0 2982124.703 -11195967.820 22745725.063 10 0 59633 67500.00000 0 5714336.027 -11567502.090 22027535.930 10 0 59633 68400.00000 0 8299945.706 -12113893.817 20882557.188 10 0 59633 69300.00000 0 10679007.404 -12803698.138 19332998.594 10 0 59633 70200.00000 0 12799447.862 -13595930.560 17408884.486 10 0 59633 71100.00000 0 14618983.081 -14441845.008 15147477.587 10 0 59633 72000.00000 0 16106632.834 -15287054.456 12592564.901 10 0 59633 72900.00000 0 17243771.812 -16073905.854 9793618.577 10 0 59633 73800.00000 0 18024674.611 -16744010.316 6804846.990 10 0 59633 74700.00000 0 18456532.456 -17240822.778 3684153.495 10 0 59633 75600.00000 0 18558941.433 -17512162.968 492022.222 10 0 59633 76500.00000 0 18362883.892 -17512571.574 -2709648.205 10 0 59633 77400.00000 0 17909245.757 -17205402.035 -5858740.710 10 0 59633 78300.00000 0 17246932.031 -16564559.073 -8894122.648 10 0 59633 79200.00000 0 16430659.640 -15575809.596 -11756832.183 10 0 59633 80100.00000 0 15518520.499 -14237609.302 -14391224.930 10 0 59633 81000.00000 0 14569417.444 -12561408.474 -16746058.388 10 0 59633 81900.00000 0 13640481.185 -10571422.135 -18775492.786 10 0 59633 82800.00000 0 12784577.362 -8303872.285 -20439988.488 10 0 59633 83700.00000 0 12048009.122 -5805731.970 -21707082.195 10 0 59633 84600.00000 0 11468512.476 -3133021.879 -22552026.458 10 0 59633 85500.00000 0 11073629.460 -348729.129 -22958279.624 10 0 59634 0.00000 0 10879528.274 2479566.027 -22917836.263 10 0 59634 900.00000 0 10890320.672 5282259.147 -22431391.038 10 0 59634 1800.00000 0 11097906.194 7990375.966 -21508332.416 10 0 59634 2700.00000 0 11482349.981 10538207.084 -20166565.676 10 0 59634 3600.00000 0 12012778.922 12865809.552 -18432168.090 10 0 59634 4500.00000 0 12648758.319 14921272.558 -16338882.557 10 0 59634 5400.00000 0 13342090.883 16662652.409 -13927459.276 10 0 59634 6300.00000 0 14038961.678 18059496.107 -11244858.154 10 0 59634 7200.00000 0 14682337.676 19093889.995 -8343327.759 10 0 59634 8100.00000 0 15214519.554 19760990.160 -5279379.261 10 0 59634 9000.00000 0 15579736.712 20069013.329 -2112676.082 10 0 59634 9900.00000 0 15726674.606 20038689.874 1095137.997 10 0 59634 10800.00000 0 15610826.411 19702203.576 4281648.393 10 0 59634 11700.00000 0 15196568.628 19101664.608 7384892.251 10 0 59634 12600.00000 0 14458872.255 18287181.898 10344569.085 10 0 59634 13500.00000 0 13384576.841 17314617.884 13103215.264 10 0 59634 14400.00000 0 11973173.512 16243121.779 15607319.129 10 0 59634 15300.00000 0 10237064.041 15132546.330 17808355.021 10 0 59634 16200.00000 0 8201285.186 14040857.436 19663716.597 10 0 59634 17100.00000 0 5902709.901 13021645.618 21137532.200 10 0 59634 18000.00000 0 3388758.852 12121843.503 22201347.513 10 0 59634 18900.00000 0 715675.749 11379744.244 22834663.622 10 0 59634 19800.00000 0 -2053562.258 10823402.785 23025321.422 10 0 59634 20700.00000 0 -4851612.980 10469485.690 22769726.118 10 0 59634 21600.00000 0 -7609319.267 10322616.345 22072908.541 10 0 59634 22500.00000 0 -10258336.374 10375241.818 20948422.729 10 0 59634 23400.00000 0 -12733729.155 10608026.060 19418082.072 10 0 59634 24300.00000 0 -14976433.060 10990752.439 17511539.020 10 0 59634 25200.00000 0 -16935478.430 11483697.605 15265716.014 10 0 59634 26100.00000 0 -18569887.073 12039419.194 12724097.927 10 0 59634 27000.00000 0 -19850163.531 12604882.714 9935898.813 10 0 59634 27900.00000 0 -20759319.874 13123838.719 6955118.018 10 0 59634 28800.00000 0 -21293391.867 13539350.796 3839503.075 10 0 59634 29700.00000 0 -21461425.354 13796368.273 649438.586 10 0 59634 30600.00000 0 -21284933.517 13844235.367 -2553218.027 10 0 59634 31500.00000 0 -20796847.695 13639030.781 -5706331.703 10 0 59634 32400.00000 0 -20040005.627 13145638.515 -8748692.892 10 0 59634 33300.00000 0 -19065240.366 12339461.555 -11621205.372 10 0 59634 34200.00000 0 -17929150.011 11207704.906 -14268035.449 10 0 59634 35100.00000 0 -16691641.902 9750172.221 -16637700.000 10 0 59634 36000.00000 0 -15413354.495 7979540.587 -18684071.958 10 0 59634 36900.00000 0 -14153065.448 5921099.883 -20367283.248 10 0 59634 37800.00000 0 -12965195.079 3611965.516 -21654507.344 10 0 59634 38700.00000 0 -11897510.442 1099795.424 -22520605.810 10 0 59634 39600.00000 0 -10989126.903 -1558936.758 -22948625.831 10 0 59634 40500.00000 0 -10268891.630 -4301041.904 -22930138.605 10 0 59634 41400.00000 0 -9754217.340 -7059002.629 -22465411.506 10 0 59634 42300.00000 0 -9450415.720 -9763548.809 -21563410.092 10 0 59634 43200.00000 0 -9350558.809 -12346314.691 -20241629.379 10 0 59634 44100.00000 0 -9435874.284 -14742467.029 -18525757.064 10 0 59634 45000.00000 0 -9676657.903 -16893194.631 -16449174.852 10 0 59634 45900.00000 0 -10033664.278 -18747955.299 -14052307.262 10 0 59634 46800.00000 0 -10459916.683 -20266386.191 -11381830.497 10 0 59634 47700.00000 0 -10902858.585 -21419797.610 -8489757.037 10 0 59634 48600.00000 0 -11306754.849 -22192187.924 -5432414.261 10 0 59634 49500.00000 0 -11615239.795 -22580737.605 -2269337.731 10 0 59634 50400.00000 0 -11773902.967 -22595762.488 937898.232 10 0 59634 51300.00000 0 -11732801.895 -22260129.531 4126888.801 10 0 59634 52200.00000 0 -11448794.367 -21608161.158 7235621.112 10 0 59634 53100.00000 0 -10887590.681 -20684075.990 10203686.024 10 0 59634 54000.00000 0 -10025438.468 -19540033.344 12973454.893 10 0 59634 54900.00000 0 -8850368.610 -18233865.314 15491198.086 10 0 59634 55800.00000 0 -7362949.599 -16826593.093 17708123.407 10 0 59634 56700.00000 0 -5576518.596 -15379832.743 19581314.741 10 0 59634 57600.00000 0 -3516879.472 -13953199.594 21074553.530 10 0 59634 58500.00000 0 -1221480.493 -12601819.934 22159008.218 10 0 59634 59400.00000 0 1261894.243 -11374053.499 22813779.633 10 0 59634 60300.00000 0 3876865.536 -10309520.924 23026293.100 10 0 59634 61200.00000 0 6560560.219 -9437517.270 22792530.912 10 0 59634 62100.00000 0 9245986.416 -8775876.403 22117101.715 10 0 59634 63000.00000 0 11864585.636 -8330332.185 21013146.120 10 0 59634 63900.00000 0 14348857.152 -8094401.881 19502080.709 10 0 59634 64800.00000 0 16634947.372 -8049795.605 17613185.295 10 0 59634 65700.00000 0 18665098.218 -8167333.982 15383040.954 10 0 59634 66600.00000 0 20389854.144 -8408335.237 12854828.999 10 0 59634 67500.00000 0 21769937.180 -8726413.464 10077503.571 10 0 59634 68400.00000 0 22777712.830 -9069612.731 7104852.784 10 0 59634 69300.00000 0 23398186.209 -9382787.561 3994465.763 10 0 59634 70200.00000 0 23629487.137 -9610129.828 806624.691 10 0 59634 71100.00000 0 23482823.879 -9697735.700 -2396857.360 10 0 59634 72000.00000 0 22981907.281 -9596104.271 -5553830.621 10 0 59634 72900.00000 0 22161869.082 -9262462.029 -8603011.930 10 0 59634 73800.00000 0 21067719.380 -8662814.265 -11485173.888 10 0 59634 74700.00000 0 19752407.604 -7773635.753 -14144296.507 10 0 59634 75600.00000 0 18274568.042 -6583127.882 -16528658.832 10 0 59634 76500.00000 0 16696044.342 -5091987.469 -18591849.000 10 0 59634 77400.00000 0 15079296.797 -3313652.916 -20293672.706 10 0 59634 78300.00000 0 13484801.226 -1274015.201 -21600942.083 10 0 59634 79200.00000 0 11968548.678 989396.344 -22488129.255 10 0 59634 80100.00000 0 10579751.067 3428721.358 -22937871.439 10 0 59634 81000.00000 0 9358849.188 5987516.022 -22941317.295 10 0 59634 81900.00000 0 8335906.890 8602869.449 -22498307.310 10 0 59634 82800.00000 0 7529458.982 11207801.580 -21617384.138 10 0 59634 83700.00000 0 6945861.306 13733843.344 -20315632.123 10 0 59634 84600.00000 0 6579170.177 16113691.847 -18618348.593 10 0 59634 85500.00000 0 6411555.992 18283829.727 -16558552.844 10 0 59635 0.00000 0 6414233.050 20186999.026 -14176342.332 10 0 59635 900.00000 0 6548865.617 21774426.847 -11518107.123 10 0 59635 1800.00000 0 6769389.850 23007706.858 -8635621.442 10 0 59635 2700.00000 0 7024173.332 23860261.142 -5585026.174 10 0 59635 3600.00000 0 7258419.521 24318318.599 -2425726.044 10 0 59635 4500.00000 0 7416713.858 24381370.354 780777.249 10 0 59635 5400.00000 0 7445602.293 24062083.718 3972091.896 10 0 59635 6300.00000 0 7296091.719 23385679.491 7086158.272 10 0 59635 7200.00000 0 6925965.399 22388800.201 10062461.737 10 0 59635 8100.00000 0 6301814.621 21117918.446 12843211.627 10 0 59635 9000.00000 0 5400700.146 19627353.707 15374463.113 10 0 59635 9900.00000 0 4211373.148 17976982.273 17607159.999 10 0 59635 10800.00000 0 2735004.063 16229737.323 19498078.670 10 0 59635 11700.00000 0 985388.713 14449004.436 21010655.684 10 0 59635 12600.00000 0 -1011376.919 12696021.598 22115683.972 10 0 59635 13500.00000 0 -3217739.827 11027391.838 22791865.522 10 0 59635 14400.00000 0 -5586016.187 9492811.410 23026211.166 10 0 59635 15300.00000 0 -8060145.906 8133106.974 22814280.964 10 0 59635 16200.00000 0 -10577803.391 6978662.040 22160261.605 10 0 59635 17100.00000 0 -13072777.967 6048296.591 21076880.017 10 0 59635 18000.00000 0 -15477526.301 5348645.042 19585155.194 10 0 59635 18900.00000 0 -17725792.282 4874057.067 17713993.001 10 0 59635 19800.00000 0 -19755186.979 4607024.267 15499631.323 10 0 59635 20700.00000 0 -21509622.664 4519114.083 12984945.640 10 0 59635 21600.00000 0 -22941500.790 4572371.327 10218627.511 10 0 59635 22500.00000 0 -24013563.631 4721128.354 7254250.877 10 0 59635 23400.00000 0 -24700332.803 4914147.848 4149243.320 10 0 59635 24300.00000 0 -24989074.817 5097008.149 963781.347 10 0 59635 25200.00000 0 -24880253.166 5214630.700 -2240369.606 10 0 59635 26100.00000 0 -24387447.640 5213842.992 -5401048.327 10 0 59635 27000.00000 0 -23536743.711 5045868.531 -8456901.263 10 0 59635 27900.00000 0 -22365616.962 4668638.117 -11348572.944 10 0 59635 28800.00000 0 -20921358.686 4048823.950 -14019860.046 10 0 59635 29700.00000 0 -19259108.086 3163509.441 -16418806.510 10 0 59635 30600.00000 0 -17439573.090 2001422.701 -18498718.101 10 0 59635 31500.00000 0 -15526534.979 563679.942 -20219076.319 10 0 59635 32400.00000 0 -13584241.152 -1135994.567 -21546333.527 10 0 59635 33300.00000 0 -11674795.109 -3071583.357 -22454573.485 10 0 59635 34200.00000 0 -9855652.985 -5205614.286 -22926023.983 10 0 59635 35100.00000 0 -8177331.477 -7490489.555 -22951411.171 10 0 59635 36000.00000 0 -6681423.186 -9870251.334 -22530148.186 10 0 59635 36900.00000 0 -5399002.572 -12282711.468 -21670353.848 10 0 59635 37800.00000 0 -4349489.228 -14661857.234 -20388700.503 10 0 59635 38700.00000 0 -3540015.952 -16940433.251 -18710093.416 10 0 59635 39600.00000 0 -2965327.749 -19052591.691 -16667187.503 10 0 59635 40500.00000 0 -2608215.386 -20936499.919 -14299750.498 10 0 59635 41400.00000 0 -2440464.311 -22536796.084 -11653884.843 10 0 59635 42300.00000 0 -2424277.848 -23806789.302 -8781123.662 10 0 59635 43200.00000 0 -2514113.164 -24710311.862 -5737418.895 10 0 59635 44100.00000 0 -2658850.901 -25223145.471 -2582041.991 10 0 59635 45000.00000 0 -2804205.048 -25333961.699 623580.359 10 0 59635 45900.00000 0 -2895269.417 -25044737.498 3817071.694 10 0 59635 46800.00000 0 -2879091.397 -24370629.095 6936327.902 10 0 59635 47700.00000 0 -2707162.711 -23339310.595 9920731.050 10 0 59635 48600.00000 0 -2337720.760 -21989806.398 12712330.602 10 0 59635 49500.00000 0 -1737762.542 -20370867.756 15256968.586 10 0 59635 50400.00000 0 -884685.712 -18538962.908 17505326.747 10 0 59635 51300.00000 0 232512.544 -16555966.022 19413875.759 10 0 59635 52200.00000 0 1612529.304 -14486642.289 20945708.878 10 0 59635 53100.00000 0 3241571.934 -12396034.534 22071244.887 10 0 59635 54000.00000 0 5093704.070 -10346860.048 22768788.043 10 0 59635 54900.00000 0 7131707.304 -8397025.363 23024935.538 10 0 59635 55800.00000 0 9308422.937 -6597361.251 22834825.792 10 0 59635 56700.00000 0 11568518.598 -4989670.680 22202223.882 10 0 59635 57600.00000 0 13850607.111 -3605169.180 21139443.147 10 0 59635 58500.00000 0 16089630.583 -2463380.823 19667104.838 10 0 59635 59400.00000 0 18219411.857 -1571534.105 17813740.461 10 0 59635 60300.00000 0 20175268.583 -924481.441 15615244.027 10 0 59635 61200.00000 0 21896582.291 -505144.507 13114184.169 10 0 59635 62100.00000 0 23329216.595 -285465.952 10358988.526 10 0 59635 63000.00000 0 24427684.545 -227827.057 7403015.131 10 0 59635 63900.00000 0 25156975.084 -286871.642 4303527.912 10 0 59635 64800.00000 0 25493962.494 -411659.403 1120595.229 10 0 59635 65700.00000 0 25428339.657 -548058.037 -2084067.898 10 0 59635 66600.00000 0 24963035.546 -641273.272 -5248291.824 10 0 59635 67500.00000 0 24114098.775 -638409.843 -8310655.729 10 0 59635 68400.00000 0 22910051.196 -490954.896 -11211679.204 10 0 59635 69300.00000 0 21390737.727 -157078.266 -13894978.630 10 0 59635 70200.00000 0 19605719.737 396348.507 -16308365.712 10 0 59635 71100.00000 0 17612278.457 1192100.947 -18404866.508 10 0 59635 72000.00000 0 15473111.392 2241389.402 -20143640.743 10 0 59635 72900.00000 0 13253817.628 3543138.688 -21490783.187 10 0 59635 73800.00000 0 11020276.822 5083791.928 -22419991.154 10 0 59635 74700.00000 0 8836031.322 6837648.776 -22913084.638 10 0 59635 75600.00000 0 6759780.679 8767725.817 -22960368.587 10 0 59635 76500.00000 0 4843093.193 10827104.839 -22560829.740 10 0 59635 77400.00000 0 3128430.167 12960713.920 -21722163.633 10 0 59635 78300.00000 0 1647565.337 15107467.943 -20460630.734 10 0 59635 79200.00000 0 420465.399 17202679.634 -18800743.909 10 0 59635 80100.00000 0 -545321.862 19180640.468 -16774792.894 10 0 59635 81000.00000 0 -1254746.823 20977263.334 -14422214.680 10 0 59635 81900.00000 0 -1724802.285 22532675.843 -11788821.954 10 0 59635 82800.00000 0 -1983553.058 23793654.968 -8925904.846 10 0 59635 83700.00000 0 -2068693.255 24715800.225 -5889223.876 10 0 59635 84600.00000 0 -2025693.833 25265353.642 -2737914.440 10 0 59635 85500.00000 0 -1905620.409 25420589.639 466674.782 99